When you browse on this site, cookies collect data to enhance your experience and personalize the content and advertising you see.
Visit our Privacy Policy to learn more. By continuing to use the site, you agree to this use of cookies and data.
EN

Hourly Weather Spring Garden

Today, 9 July, Thursday

Time Temperature Precipitation Wind Pressure Humidity
00:00 +13°C° 0 mm 1 mps 644 mmHg 49%
01:00 +12°C° 0 mm 1 mps 644 mmHg 50%
02:00 +12°C° 0 mm 1 mps 644 mmHg 51%
03:00 +12°C° 0 mm 1 mps 644 mmHg 51%
04:00 +11°C° 0 mm 1 mps 644 mmHg 52%
05:00 +13°C° 0 mm 0 mps 645 mmHg 46%
06:00 +16°C° 0 mm 0 mps 646 mmHg 39%
07:00 +19°C° 0 mm 0 mps 647 mmHg 33%
08:00 +24°C° 0 mm 1 mps 648 mmHg 27%
09:00 +27°C° 0 mm 1 mps 649 mmHg 22%
10:00 +29°C° 0 mm 2 mps 649 mmHg 17%
11:00 +30°C° 0 mm 3 mps 649 mmHg 16%
12:00 +30°C° 0 mm 4 mps 649 mmHg 15%
13:00 +32°C° 0 mm 5 mps 649 mmHg 14%
14:00 +32°C° 0 mm 5 mps 648 mmHg 14%
15:00 +30°C° 0 mm 5 mps 648 mmHg 14%
16:00 +30°C° 0 mm 5 mps 648 mmHg 14%
17:00 +27°C° 0 mm 4 mps 647 mmHg 20%
18:00 +25°C° 0 mm 3 mps 647 mmHg 26%
19:00 +22°C° 0 mm 1 mps 646 mmHg 32%
20:00 +20°C° 0 mm 1 mps 646 mmHg 34%
21:00 +18°C° 0 mm 1 mps 646 mmHg 37%
22:00 +15°C° 0 mm 1 mps 646 mmHg 40%
23:00 +14°C° 0 mm 1 mps 646 mmHg 41%

Tomorrow, 10 July, Friday

Time Temperature Precipitation Wind Pressure Humidity
00:00 +14°C° 0 mm 1 mps 646 mmHg 42%
01:00 +13°C° 0 mm 1 mps 646 mmHg 43%
02:00 +13°C° 0 mm 1 mps 646 mmHg 43%
03:00 +12°C° 0 mm 1 mps 646 mmHg 43%
04:00 +12°C° 0 mm 1 mps 646 mmHg 43%
05:00 +15°C° 0 mm 1 mps 647 mmHg 37%
06:00 +19°C° 0 mm 1 mps 648 mmHg 32%
07:00 +20°C° 0 mm 0 mps 649 mmHg 26%
08:00 +25°C° 0 mm 1 mps 650 mmHg 21%
09:00 +28°C° 0 mm 1 mps 651 mmHg 16%
10:00 +32°C° 0 mm 2 mps 652 mmHg 11%
11:00 +33°C° 0 mm 3 mps 652 mmHg 10%
12:00 +34°C° 0 mm 4 mps 652 mmHg 10%
13:00 +35°C° 0 mm 5 mps 652 mmHg 9%
14:00 +34°C° 0 mm 4 mps 651 mmHg 10%
15:00 +33°C° 0 mm 4 mps 651 mmHg 10%
16:00 +33°C° 0 mm 4 mps 650 mmHg 11%
17:00 +29°C° 0 mm 3 mps 650 mmHg 17%
18:00 +26°C° 0 mm 2 mps 649 mmHg 22%
19:00 +23°C° 0 mm 1 mps 648 mmHg 28%
20:00 +21°C° 0 mm 1 mps 648 mmHg 30%
21:00 +18°C° 0 mm 1 mps 648 mmHg 33%
22:00 +15°C° 0 mm 1 mps 648 mmHg 35%
23:00 +15°C° 0 mm 1 mps 647 mmHg 36%

Day after tomorrow, 11 July, Saturday

Time Temperature Precipitation Wind Pressure Humidity
00:00 +14°C° 0 mm 1 mps 647 mmHg 36%
01:00 +14°C° 0 mm 1 mps 647 mmHg 37%
02:00 +13°C° 0 mm 1 mps 647 mmHg 36%
03:00 +13°C° 0 mm 1 mps 647 mmHg 35%
04:00 +13°C° 0 mm 1 mps 647 mmHg 35%
05:00 +16°C° 0 mm 1 mps 648 mmHg 31%
06:00 +20°C° 0 mm 1 mps 649 mmHg 27%
07:00 +21°C° 0 mm 0 mps 651 mmHg 23%
08:00 +26°C° 0 mm 1 mps 651 mmHg 20%
09:00 +28°C° 0 mm 2 mps 652 mmHg 16%
10:00 +31°C° 0 mm 3 mps 653 mmHg 12%
11:00 +33°C° 0 mm 4 mps 653 mmHg 11%
12:00 +34°C° 0 mm 5 mps 653 mmHg 10%
13:00 +34°C° 0 mm 5 mps 653 mmHg 9%
14:00 +34°C° 0 mm 5 mps 652 mmHg 9%
15:00 +33°C° 0 mm 5 mps 651 mmHg 9%
16:00 +33°C° 0 mm 5 mps 651 mmHg 9%
17:00 +29°C° 0 mm 4 mps 650 mmHg 14%
18:00 +26°C° 0 mm 2 mps 650 mmHg 19%
19:00 +23°C° 0 mm 1 mps 649 mmHg 24%
20:00 +21°C° 0 mm 1 mps 649 mmHg 25%
21:00 +19°C° 0 mm 1 mps 649 mmHg 27%
22:00 +15°C° 0 mm 1 mps 648 mmHg 28%
23:00 +15°C° 0 mm 1 mps 648 mmHg 28%

12 July, Sunday

Time Temperature Precipitation Wind Pressure Humidity
00:00 +14°C° 0 mm 1 mps 648 mmHg 28%
01:00 +14°C° 0 mm 1 mps 648 mmHg 27%
02:00 +14°C° 0 mm 1 mps 648 mmHg 26%
03:00 +13°C° 0 mm 1 mps 648 mmHg 26%
04:00 +13°C° 0 mm 1 mps 647 mmHg 25%
05:00 +16°C° 0 mm 1 mps 648 mmHg 23%
06:00 +20°C° 0 mm 1 mps 649 mmHg 22%
07:00 +21°C° 0 mm 0 mps 651 mmHg 20%
08:00 +26°C° 0 mm 1 mps 651 mmHg 17%
09:00 +29°C° 0 mm 2 mps 652 mmHg 13%
10:00 +32°C° 0 mm 2 mps 652 mmHg 9%
11:00 +34°C° 0 mm 3 mps 652 mmHg 9%
12:00 +35°C° 0 mm 4 mps 651 mmHg 8%
13:00 +35°C° 0 mm 5 mps 651 mmHg 8%
14:00 +35°C° 0 mm 5 mps 650 mmHg 7%
15:00 +34°C° 0 mm 5 mps 650 mmHg 7%
16:00 +34°C° 0 mm 4 mps 649 mmHg 7%
17:00 +30°C° 0 mm 3 mps 648 mmHg 12%
18:00 +27°C° 0 mm 2 mps 648 mmHg 16%
19:00 +24°C° 0 mm 1 mps 647 mmHg 21%
20:00 +22°C° 0 mm 1 mps 647 mmHg 21%
21:00 +20°C° 0 mm 1 mps 647 mmHg 21%
22:00 +18°C° 0 mm 1 mps 647 mmHg 21%
23:00 +16°C° 0 mm 1 mps 646 mmHg 21%

13 July, Monday

Time Temperature Precipitation Wind Pressure Humidity
00:00 +15°C° 0 mm 1 mps 646 mmHg 22%
01:00 +15°C° 0 mm 1 mps 646 mmHg 22%
02:00 +14°C° 0 mm 1 mps 646 mmHg 22%
03:00 +14°C° 0 mm 1 mps 646 mmHg 22%
04:00 +14°C° 0 mm 1 mps 645 mmHg 22%
05:00 +16°C° 0 mm 1 mps 646 mmHg 21%
06:00 +20°C° 0 mm 1 mps 647 mmHg 20%
07:00 +23°C° 0 mm 1 mps 648 mmHg 18%
08:00 +26°C° 0 mm 1 mps 649 mmHg 15%
09:00 +29°C° 0 mm 2 mps 649 mmHg 11%
10:00 +34°C° 0 mm 2 mps 650 mmHg 8%
11:00 +34°C° 0 mm 3 mps 650 mmHg 8%
12:00 +35°C° 0 mm 4 mps 649 mmHg 8%
13:00 +35°C° 0 mm 5 mps 649 mmHg 9%
14:00 +35°C° 0 mm 5 mps 648 mmHg 10%
15:00 +34°C° 0 mm 5 mps 648 mmHg 11%
16:00 +34°C° 0 mm 5 mps 647 mmHg 12%
17:00 +30°C° 0 mm 4 mps 646 mmHg 17%
18:00 +27°C° 0 mm 2 mps 646 mmHg 22%
19:00 +25°C° 0 mm 1 mps 645 mmHg 27%
20:00 +22°C° 0 mm 1 mps 645 mmHg 30%
21:00 +20°C° 0 mm 1 mps 645 mmHg 32%
22:00 +16°C° 0 mm 0 mps 645 mmHg 35%
23:00 +16°C° 0 mm 0 mps 645 mmHg 36%

14 July, Tuesday

Time Temperature Precipitation Wind Pressure Humidity
00:00 +16°C° 0 mm 1 mps 645 mmHg 37%
01:00 +15°C° 0 mm 1 mps 645 mmHg 38%
02:00 +15°C° 0 mm 1 mps 644 mmHg 39%
03:00 +14°C° 0 mm 1 mps 644 mmHg 41%
04:00 +14°C° 0 mm 1 mps 644 mmHg 42%
05:00 +16°C° 0 mm 1 mps 645 mmHg 38%
06:00 +20°C° 0 mm 1 mps 646 mmHg 35%
07:00 +22°C° 0 mm 1 mps 647 mmHg 31%
08:00 +26°C° 0 mm 1 mps 648 mmHg 26%
09:00 +30°C° 0 mm 1 mps 649 mmHg 21%
10:00 +32°C° 0 mm 0 mps 650 mmHg 16%
11:00 +34°C° 0 mm 1 mps 649 mmHg 15%
12:00 +35°C° 0 mm 2 mps 649 mmHg 15%
13:00 +36°C° 0 mm 3 mps 648 mmHg 14%
14:00 +35°C° 0 mm 3 mps 648 mmHg 15%
15:00 +35°C° 0 mm 4 mps 647 mmHg 15%
16:00 +34°C° 0 mm 4 mps 647 mmHg 16%
17:00 +31°C° 0 mm 3 mps 646 mmHg 22%
18:00 +28°C° 0 mm 2 mps 646 mmHg 28%
19:00 +25°C° 0 mm 1 mps 645 mmHg 33%
20:00 +23°C° 0 mm 1 mps 645 mmHg 36%
21:00 +21°C° 0 mm 1 mps 645 mmHg 38%
22:00 +19°C° 0 mm 1 mps 645 mmHg 41%
23:00 +19°C° 0 mm 1 mps 644 mmHg 42%
Show more